Rae Point, Nunavut

9:18 PM MST on February 22, 2017 (GMT -0700)
Rae Point

Weather History for CZRP - October, 2014

Change the Weather History Date:

Wednesday, October 22, 2014

  Actual Average Record
Temperature  
Mean Temperature -5 °F -  
Max Temperature -1 °F - - ()
Min Temperature -9 °F - - ()
Degree Days  
Heating Degree Days 70    
Moisture  
Dew Point -8 °F    
Average Humidity 83    
Maximum Humidity 86    
Minimum Humidity 73    
Precipitation  
Precipitation 0.00 in - - ()
Sea Level Pressure  
Sea Level Pressure 30.17 in    
Wind  
Wind Speed 22 mph ()    
Max Wind Speed 33 mph    
Max Gust Speed 37 mph    
T = Trace of Precipitation, MM = Missing Value Source: Averaged Metar Reports

Daily Weather History Graph

Daily Weather History Graph

Search for Another Location

Airport or City:

Trip Planner

Search our weather history database for the weather conditions in past years. The results will help you decide how hot, cold, wet, or windy it might be!

Date:

Astronomy

Oct. 22, 2014 Rise Set
Actual Time 9:44 AM MDT 3:48 PM MDT
Civil Twilight 8:05 AM MDT 5:27 PM MDT
Nautical Twilight 6:27 AM MDT 7:04 PM MDT
Astronomical Twilight 4:48 AM MDT 8:41 PM MDT
Moon 7:20 AM MDT (10/22) 4:07 PM MDT (10/22)
Length of Visible Light 9h 21m
Length of Day
6h 03m
Waning Crescent, 1% of the Moon is Illuminated
Oct 22
Waning Crescent
Oct 23
New
Oct 30
First Quarter
Nov 6
Full
Nov 14
Last Quarter

Hourly Weather History & Observations

Time (MDT) Temp. Windchill Dew Point Humidity Pressure Visibility Wind Dir Wind Speed Gust Speed Precip Events Conditions
12:00 AM -7 °F - -11 °F 76% 30.07 in - WNW 23.0 mph - -  
12:00 AM -7.1 °F -32.7 °F -10.7 °F 84% 30.07 in - WNW 23.0 mph - N/A   Unknown
1:00 AM -5.8 °F -31.5 °F -9.2 °F 85% 30.06 in - WNW 24.2 mph 29.9 mph N/A   Unknown
2:00 AM -6.0 °F -30.2 °F -9.6 °F 84% 30.09 in - WNW 20.7 mph - N/A   Unknown
4:00 AM -5.6 °F -30.8 °F -9.0 °F 85% 30.12 in - WNW 23.0 mph - N/A   Unknown
5:00 AM -6.2 °F -29.2 °F -9.8 °F 84% 30.14 in - NW 18.4 mph - N/A   Unknown
6:00 AM -7 °F - -11 °F 73% 30.14 in - NW 16.1 mph - -  
6:00 AM -7.4 °F -29.6 °F -11.0 °F 84% 30.14 in - NW 16.1 mph - N/A   Unknown
7:00 AM -8.1 °F -29.0 °F -11.7 °F 84% 30.14 in - WNW 13.8 mph - N/A   Unknown
8:00 AM -8.3 °F -31.4 °F -11.9 °F 84% 30.15 in - West 17.3 mph - N/A   Unknown
9:00 AM -7.8 °F -33.6 °F -11.4 °F 84% 30.15 in - WNW 23.0 mph 29.9 mph N/A   Unknown
10:00 AM -9.0 °F -31.7 °F -12.8 °F 83% 30.15 in - West 16.1 mph 25.3 mph N/A   Unknown
11:00 AM -3.6 °F -31.2 °F -6.9 °F 86% 30.14 in - West 31.1 mph - N/A   Unknown
12:00 PM -3 °F - -6 °F 81% 30.17 in - West 27.6 mph - -  
12:00 PM -2.6 °F -28.5 °F -5.8 °F 86% 30.17 in - West 27.6 mph - N/A   Unknown
1:00 PM -2.4 °F -30.2 °F -5.8 °F 85% 30.17 in - West 33.4 mph - N/A   Unknown
2:00 PM -4.2 °F -31.5 °F -7.8 °F 84% 30.19 in - West 29.9 mph - N/A   Unknown
3:00 PM -4.2 °F -32.6 °F -7.6 °F 85% 30.19 in - West 33.4 mph - N/A   Unknown
4:00 PM -4.7 °F -32.6 °F -8.1 °F 85% 30.21 in - West 31.1 mph 36.8 mph N/A   Unknown
5:00 PM -4.7 °F -32.6 °F -8.1 °F 85% 30.22 in - West 31.1 mph - N/A   Unknown
6:00 PM -4 °F - -8 °F 75% 30.23 in - West 29.9 mph - -  
6:00 PM -4.4 °F -31.7 °F -7.8 °F 85% 30.23 in - West 29.9 mph - N/A   Unknown
7:00 PM -1.3 °F -28.0 °F -6.3 °F 79% 30.22 in - West 31.1 mph - N/A   Unknown
8:00 PM -1.8 °F -28.7 °F -5.1 °F 86% 30.23 in - West 31.1 mph 36.8 mph N/A   Unknown
9:00 PM -2.0 °F -28.6 °F -5.3 °F 86% 30.24 in - West 29.9 mph - N/A   Unknown
10:00 PM -2.0 °F -28.2 °F -5.3 °F 86% 30.25 in - West 28.8 mph - N/A   Unknown
11:00 PM -2.6 °F -28.9 °F -6.0 °F 85% 30.26 in - West 28.8 mph 34.5 mph N/A   Unknown